Hereford, TX

12:18 PM CDT on July 22, 2017 (GMT -0500)
Hereford Municipal

Weather History for KHRX - March, 2014

Change the Weather History Date:

Saturday, March 29, 2014

  Actual Average (KCVN) Record (KCVN)
Temperature  
Mean Temperature 48 °F -  
Max Temperature 70 °F 65 °F 88 °F (1963)
Min Temperature 26 °F 35 °F 13 °F (1926)
Degree Days  
Heating Degree Days 17    
Moisture  
Dew Point 21 °F    
Average Humidity 39    
Maximum Humidity 73    
Minimum Humidity 14    
Precipitation  
Precipitation 0.00 in - - ()
Sea Level Pressure  
Sea Level Pressure 30.24 in    
Wind  
Wind Speed 8 mph (SSW)    
Max Wind Speed 25 mph    
Max Gust Speed 34 mph    
Visibility 10 miles    
Events      
Averages and records for this station are not official NWS values.
T = Trace of Precipitation, MM = Missing Value Source: NWS Daily Summary

Daily Weather History Graph

Daily Weather History Graph

Search for Another Location

Airport or City:

Trip Planner

Search our weather history database for the weather conditions in past years. The results will help you decide how hot, cold, wet, or windy it might be!

Date:

Astronomy

Mar. 29, 2014 Rise Set
Actual Time 7:40 AM CDT 8:08 PM CDT
Civil Twilight 7:14 AM CDT 8:33 PM CDT
Nautical Twilight 6:45 AM CDT 9:03 PM CDT
Astronomical Twilight 6:14 AM CDT 9:33 PM CDT
Moon 6:47 AM CDT (3/29) 7:17 PM CDT (3/29)
Length of Visible Light 13h 18m
Length of Day
12h 27m
Waning Crescent, 2% of the Moon is Illuminated
Mar 29
Waning Crescent
Mar 30
New
Apr 7
First Quarter
Apr 15
Full
Apr 22
Last Quarter

Hourly Weather History & Observations

Time (CDT) Temp. Windchill Dew Point Humidity Pressure Visibility Wind Dir Wind Speed Gust Speed Precip Events Conditions
12:15 AM 37.9 °F - 21.2 °F 51% 30.21 in 10.0 mi North - - N/A   Clear
12:35 AM 38.3 °F - 21.2 °F 50% 30.21 in 10.0 mi North - - N/A   Clear
12:55 AM 36.7 °F - 21.7 °F 55% 30.22 in 10.0 mi Calm Calm - N/A   Clear
1:15 AM 38.8 °F - 25.3 °F 58% 30.22 in 10.0 mi North - - N/A   Clear
1:35 AM 34.3 °F - 18.1 °F 52% 30.22 in 10.0 mi Calm Calm - N/A   Clear
1:55 AM 33.4 °F - 20.1 °F 58% 30.23 in 10.0 mi Calm Calm - N/A   Clear
2:15 AM 33.1 °F - 17.1 °F 52% 30.24 in 10.0 mi Calm Calm - N/A   Clear
2:35 AM 32.0 °F 28.7 °F 18.0 °F 56% 30.24 in 10.0 mi WNW 3.5 mph - N/A   Clear
2:55 AM 31.3 °F 27.9 °F 18.3 °F 59% 30.25 in 10.0 mi WNW 3.5 mph - N/A   Clear
3:15 AM 31.1 °F 25.4 °F 19.2 °F 61% 30.25 in 10.0 mi NW 5.8 mph - N/A   Clear
3:35 AM 30.7 °F 24.9 °F 18.0 °F 59% 30.26 in 10.0 mi NW 5.8 mph - N/A   Clear
3:55 AM 30.0 °F 26.5 °F 18.1 °F 61% 30.26 in 10.0 mi NW 3.5 mph - N/A   Clear
4:15 AM 29.7 °F 24.7 °F 19.8 °F 67% 30.26 in 10.0 mi West 4.6 mph - N/A   Clear
4:35 AM 30.2 °F 23.4 °F 21.0 °F 69% 30.27 in 10.0 mi West 6.9 mph - N/A   Clear
4:55 AM 30.6 °F 23.8 °F 20.8 °F 67% 30.27 in 10.0 mi West 6.9 mph - N/A   Clear
5:15 AM 29.3 °F 21.5 °F 21.2 °F 72% 30.28 in 10.0 mi West 8.1 mph - N/A   Clear
5:35 AM 29.1 °F 23.0 °F 19.8 °F 68% 30.28 in 10.0 mi West 5.8 mph - N/A   Clear
5:55 AM 28.2 °F 21.0 °F 19.0 °F 68% 30.29 in 10.0 mi West 6.9 mph - N/A   Clear
6:15 AM 26.8 °F 21.4 °F 19.2 °F 73% 30.29 in 10.0 mi West 4.6 mph - N/A   Clear
6:35 AM 27.5 °F 23.6 °F 19.6 °F 72% 30.29 in 10.0 mi West 3.5 mph - N/A   Clear
6:55 AM 27.3 °F 23.4 °F 19.4 °F 72% 30.29 in 10.0 mi WNW 3.5 mph - N/A   Clear
7:15 AM 28.8 °F 25.0 °F 21.0 °F 73% 30.30 in 10.0 mi WSW 3.5 mph - N/A   Clear
7:35 AM 28.4 °F 23.3 °F 20.5 °F 72% 30.31 in 10.0 mi West 4.6 mph - N/A   Clear
7:55 AM 26.8 °F 21.4 °F 18.0 °F 69% 30.31 in 10.0 mi WNW 4.6 mph - N/A   Clear
8:15 AM 28.0 °F - 19.6 °F 71% 30.32 in 10.0 mi Calm Calm - N/A   Clear
8:35 AM 32.0 °F - 21.9 °F 66% 30.32 in 10.0 mi Calm Calm - N/A   Clear
8:55 AM 35.1 °F - 23.9 °F 64% 30.33 in 10.0 mi Calm Calm - N/A   Clear
9:15 AM 39.9 °F - 26.4 °F 59% 30.33 in 5.0 mi Calm Calm - N/A   Haze
9:35 AM 43.9 °F 42.3 °F 26.2 °F 50% 30.35 in 10.0 mi SW 3.5 mph - N/A   Clear
9:55 AM 47.7 °F - 26.4 °F 44% 30.35 in 10.0 mi SSW 6.9 mph - N/A   Clear
10:15 AM 50.0 °F - 27.3 °F 41% 30.35 in 10.0 mi SSW 9.2 mph - N/A   Clear
10:35 AM 52.9 °F - 27.7 °F 38% 30.35 in 10.0 mi SW 10.4 mph - N/A   Clear
10:55 AM 54.3 °F - 26.8 °F 35% 30.36 in 10.0 mi SSW 11.5 mph - N/A   Clear
11:15 AM 57.0 °F - 25.9 °F 30% 30.36 in 10.0 mi South 12.7 mph 18.4 mph N/A   Clear
11:35 AM 58.5 °F - 25.3 °F 28% 30.36 in 10.0 mi South 13.8 mph 20.7 mph N/A   Clear
11:55 AM 59.4 °F - 24.1 °F 26% 30.36 in 10.0 mi SSE 15.0 mph 21.9 mph N/A   Clear
12:15 PM 60.3 °F - 22.6 °F 24% 30.35 in 10.0 mi South 17.3 mph 21.9 mph N/A   Clear
12:35 PM 61.3 °F - 22.6 °F 23% 30.34 in 10.0 mi South 20.7 mph 24.2 mph N/A   Clear
12:55 PM 62.6 °F - 21.6 °F 21% 30.33 in 10.0 mi SSE 20.7 mph 26.5 mph N/A   Clear
1:15 PM 63.9 °F - 23.2 °F 21% 30.32 in 10.0 mi South 17.3 mph 27.6 mph N/A   Clear
1:35 PM 64.0 °F - 21.0 °F 19% 30.31 in 10.0 mi South 17.3 mph 29.9 mph N/A   Clear
1:55 PM 64.6 °F - 20.8 °F 19% 30.29 in 10.0 mi South 17.3 mph 25.3 mph N/A   Clear
2:15 PM 65.1 °F - 19.9 °F 18% 30.27 in 10.0 mi South 19.6 mph 29.9 mph N/A   Clear
2:35 PM 66.2 °F - 19.6 °F 17% 30.26 in 10.0 mi South 23.0 mph 29.9 mph N/A   Clear
2:55 PM 66.9 °F - 17.6 °F 15% 30.24 in 10.0 mi South 20.7 mph 31.1 mph N/A   Clear
3:15 PM 67.8 °F - 18.1 °F 15% 30.24 in 10.0 mi SSW 20.7 mph 27.6 mph N/A   Clear
3:35 PM 67.5 °F - 18.5 °F 15% 30.22 in 10.0 mi SSW 18.4 mph 32.2 mph N/A   Clear
3:55 PM 68.4 °F - 18.9 °F 15% 30.20 in 10.0 mi SSW 24.2 mph 29.9 mph N/A   Clear
4:15 PM 68.5 °F - 18.5 °F 15% 30.19 in 10.0 mi South 20.7 mph 28.8 mph N/A   Clear
4:35 PM 68.9 °F - 19.0 °F 15% 30.17 in 10.0 mi South 25.3 mph 34.5 mph N/A   Clear
4:55 PM 69.4 °F - 18.9 °F 15% 30.16 in 10.0 mi South 23.0 mph 31.1 mph N/A   Clear
5:15 PM 69.8 °F - 18.7 °F 14% 30.16 in 10.0 mi South 20.7 mph 27.6 mph N/A   Clear
5:35 PM 69.4 °F - 18.1 °F 14% 30.15 in 10.0 mi SSW 19.6 mph 29.9 mph N/A   Clear
5:55 PM 70.0 °F - 18.0 °F 14% 30.14 in 10.0 mi SSW 20.7 mph 28.8 mph N/A   Clear
6:15 PM 69.6 °F - 18.0 °F 14% 30.13 in 10.0 mi South 17.3 mph 28.8 mph N/A   Clear
6:35 PM 68.9 °F - 17.6 °F 14% 30.13 in 10.0 mi South 20.7 mph 32.2 mph N/A   Clear
6:55 PM 68.5 °F - 17.2 °F 14% 30.13 in 10.0 mi SSW 19.6 mph 28.8 mph N/A   Clear
7:15 PM 68.0 °F - 17.4 °F 14% 30.12 in 10.0 mi SSW 18.4 mph 25.3 mph N/A   Clear
7:35 PM 66.6 °F - 16.9 °F 15% 30.12 in 10.0 mi South 17.3 mph 27.6 mph N/A   Clear
7:55 PM 64.9 °F - 17.2 °F 16% 30.12 in 10.0 mi South 17.3 mph - N/A   Clear
8:15 PM 62.8 °F - 18.5 °F 18% 30.12 in 10.0 mi South 15.0 mph - N/A   Clear
8:35 PM 60.8 °F - 19.4 °F 20% 30.12 in 10.0 mi South 12.7 mph - N/A   Clear
8:55 PM 59.4 °F - 20.5 °F 22% 30.13 in 10.0 mi South 12.7 mph 20.7 mph N/A   Clear
9:15 PM 58.1 °F - 21.6 °F 24% 30.13 in 10.0 mi South 12.7 mph - N/A   Clear
9:35 PM 57.7 °F - 22.8 °F 26% 30.13 in 10.0 mi South 13.8 mph - N/A   Clear
9:55 PM 56.7 °F - 23.9 °F 28% 30.14 in 10.0 mi South 11.5 mph - N/A   Clear
10:15 PM 54.7 °F - 23.9 °F 30% 30.15 in 10.0 mi South 12.7 mph - N/A   Clear
10:35 PM 54.3 °F - 24.4 °F 31% 30.15 in 10.0 mi South 11.5 mph - N/A   Clear
10:55 PM 54.0 °F - 24.4 °F 32% 30.14 in 10.0 mi South 11.5 mph - N/A   Clear
11:15 PM 56.8 °F - 24.3 °F 28% 30.14 in 10.0 mi South 13.8 mph 20.7 mph N/A   Clear
11:35 PM 55.6 °F - 23.9 °F 29% 30.14 in 10.0 mi South 17.3 mph 24.2 mph N/A   Clear
11:55 PM 55.8 °F - 23.0 °F 28% 30.13 in 10.0 mi South 18.4 mph 24.2 mph N/A   Clear